Location: Cisewo
(53.3833°N, 14.9000°E)
Time: 14:00:02
(UTC+00:00)

Cosmos 1666 - Pass Details

Date: 18 April 2021
Orbit: 495 x 520 km, 82.5° (Epoch: 16 May)

Event Time Altitude Azimuth Distance (km) Brightness Sun altitude
Rises 22:49:34 0° 352° (N) 2,645 7.7 -25.4°
Reaches altitude 10° 22:51:47 10° 359° (N) 1,749 6.4 -25.4°
Enters shadow 22:54:49 41° 41° (NE) 755 3.8 -25.4°
